Location: Unspecified
(0.0000°N, 0.0000°E)
Time: 18:01:56
(UTC+00:00)

YUBILEINY - Pass Details

Date: 14 December 2017
Orbit: 1479 x 1508 km, 82.5° (Epoch: 24 April)

Event Time Altitude Azimuth Distance (km) Brightness Sun altitude
Rises 01:52:49 0° 164° (SSE) 4,614 ? -53.1°
Reaches altitude 10° 01:56:04 10° 155° (SSE) 3,636 ? -52.5°
Enters shadow 02:01:18 30° 122° (ESE) 2,441 ? -51.5°
